Historyczne dane pomiarowe

Dodano dane terminowe – wersja testowa.

Dane z okresu 1951-2019

Wersja bazy: 1.34 [2019-03-16, lista zmian], aktualizacja planowana na 2019-04-15

Dane meteo z obszaru Polski uzyskane na podstawie danych udostępnionych przez Instytut Meteorologii i Gospodarki Wodnej – Państwowy Instytut Badawczy.

 

Wybierz Datę:    

       

TemperaturaWilgotnośćWiatrCiśnienieOpadyŚniegCzas trwania zjawisk
 Stacja t tx tn tng RH VA  wxwx mslp ppp RRR   cm mm wxwxwxwxwxwxwx
2019-05-31 15.9 21.3 12.1 11.9 70.1 12.1- 2.6--1022.6 996.1 0.0 0.0 0.0- 0.0--------
2019-05-30 13.8 17.6 10.9 11.1 81.6 12.9- 3.4--1021.9 995.2 0.8 0.6 0.2- 0.0--------
2019-05-29 15.3 20.8 11.9 11.5 88.0 15.3- 4.3--1012.4 986.1 3.1 3.1 0.0- 0.0--------
2019-05-28 18.9 24.8 14.8 13.1 77.9 16.7- 3.3--1007.2 981.3 5.2 5.2 0.0- 0.0--------
2019-05-27 18.6 25.4 11.6 9.1 72.0 14.9- 2.9--1011.8 985.8 0.4 0.0 0.4- 0.0--------
2019-05-26 16.1 22.1 8.7 7.0 76.6 13.7- 3.0--1013.5 987.2 0.0 0.0 0.0- 0.0--------
2019-05-25 15.6 21.0 12.4 11.4 82.5 14.4- 2.8--1011.6 985.3 0.5 0.5 0.0- 0.0--------
2019-05-24 15.1 18.3 13.3 13.0 91.3 15.6- 3.0--1011.8 985.5 0.7 0.7 0.0- 0.0--------
2019-05-23 15.7 20.5 12.6 11.5 88.0 15.5- 1.4--1009.8 983.6 0.4 0.3 0.1- 0.0--------
2019-05-22 14.4 18.5 11.1 10.0 89.5 14.6- 3.3--1005.5 979.2 1.9 1.6 0.3- 0.0--------
2019-05-21 13.8 18.7 12.5 11.0 91.9 14.5- 4.0--1004.4 978.1 15.4 1.3 14.1- 0.0--------
2019-05-20 17.2 24.1 14.1 12.6 88.5 17.1- 3.6--1007.1 981.0 43.1 40.4 2.7- 0.0--------
2019-05-19 17.9 23.6 14.6 14.3 85.4 17.3- 4.3--1009.1 983.1 0.0 0.0 0.0- 0.0--------
2019-05-18 16.7 23.6 10.4 8.9 88.0 16.6- 2.0--1011.1 985.0 2.1 2.0 0.1- 0.0--------
2019-05-17 15.4 21.4 9.8 7.5 85.4 14.7- 1.9--1012.8 986.5 9.6 0.0 9.6- 0.0--------
2019-05-16 14.0 16.4 12.3 11.5 92.9 14.8- 2.4--1014.1 987.6 3.6 3.4 0.2- 0.0--------
2019-05-15 12.2 16.1 8.1 7.9 94.9 13.5- 2.3--1015.6 989.0 13.2 3.7 9.5- 0.0--------
2019-05-14 7.5 9.4 5.4 5.4 94.8 9.8- 4.4--1023.8 996.5 4.7 1.7 3.0- 0.0--------
2019-05-13 10.0 16.8 8.8 8.7 84.5 10.4- 5.5--1026.6 999.5 0.2 0.0 0.2- 0.0--------
2019-05-12 15.3 20.9 9.3 8.6 68.9 11.4- 2.6--1019.5 993.0 0.0 0.0 0.0- 0.0--------
2019-05-11 11.7 16.9 5.1 2.4 81.4 11.0- 2.6--1012.9 986.2 5.9 5.5 0.4- 0.0--------
2019-05-10 11.1 14.3 8.4 7.6 84.3 11.0- 2.3--1008.4 981.8 0.0 0.0 0.0- 0.0--------
2019-05-09 10.7 16.9 2.7 -0.6 60.9 7.6- 4.0--1008.8 982.2 0.0 0.0 0.0- 0.0--------
2019-05-08 7.3 13.6 -0.9 -2.6 64.8 6.2- 2.1--1016.9 989.7 0.0 0.0 0.0- 0.0--------
2019-05-07 8.3 13.7 5.1 4.6 65.9 7.1- 5.0--1013.2 986.2 0.0 0.0 0.0- 0.0--------
2019-05-06 5.3 8.2 4.7 4.3 90.1 8.0- 5.1--1010.4 983.2 9.2 9.2 0.0- 0.0--------
2019-05-05 8.7 10.2 7.5 4.5 94.0 10.6- 3.9--1008.1 981.3 10.3 4.9 5.4- 0.0--------
2019-05-04 9.3 13.3 3.8 0.9 79.3 9.0- 2.8--1007.9 981.1 0.0 0.0 0.0- 0.0--------
2019-05-03 9.4 15.0 4.4 2.3 85.4 10.0- 3.4--1006.0 979.3 4.7 4.4 0.3- 0.0--------
2019-05-02 12.3 17.7 5.5 3.2 68.3 9.6- 6.4--1003.0 976.7 0.1 0.0 0.1- 0.0--------
2019-05-01 10.9 16.4 8.2 8.3 76.6 9.8- 4.6--1006.2 979.6 0.0 0.0 0.0- 0.0--------
2019-04-30 9.8 12.2 9.3 9.2 94.9 11.5- 3.9--1010.9 984.1 2.1 2.1 0.0- 0.0--------
2019-04-29 12.1 13.3 11.2 11.1 95.8 13.5- 2.0--1010.7 984.1 21.1 13.7 7.4- 0.0--------
2019-04-28 11.9 15.7 11.3 11.1 89.8 12.5- 3.9--1010.8 984.2 10.0 0.9 9.1- 0.0--------
2019-04-27 17.7 22.8 13.9 10.0 63.9 12.8----1009.5 983.5 0.0 0.0 0.0- 0.0--------
2019-04-26 19.9 26.6 9.6 5.3 52.3 11.5----1012.1 986.2 0.0 0.0 0.0- 0.0--------
2019-04-25 16.2 23.7 8.6 5.7 58.4 10.5- 3.5--1017.8 991.4 0.0 0.0 0.0- 0.0--------
2019-04-24 13.2 18.4 7.7 5.9 51.9 7.9- 4.6--1020.8 994.1 0.0 0.0 0.0- 0.0--------
2019-04-23 11.1 17.9 2.1 -0.5 46.0 5.6- 7.1--1023.3 996.3 0.0 0.0 0.0- 0.0--------
2019-04-22 9.9 15.2 6.3 4.5 69.0 8.2- 5.6--1022.4 995.4 0.0 0.0 0.0- 0.0--------
2019-04-21 9.5 15.7 5.0 1.5 71.8 8.4- 3.1--1021.4 994.4 9.1 1.8 7.3- 0.0--------
2019-04-20 10.1 18.4 -0.4 -3.9 54.8 6.1- 2.5--1027.21000.0 0.0 0.0 0.0- 0.0--------
2019-04-19 11.0 17.9 3.3 0.9 45.9 5.5- 3.4--1030.31003.1 0.0 0.0 0.0- 0.0--------
2019-04-18 10.5 18.1 0.6 -1.5 60.6 7.2- 2.3--1030.31003.1 0.0 0.0 0.0- 0.0--------
2019-04-17 9.9 16.5 3.9 2.3 65.1 7.5- 3.4--1025.2 998.0 0.0 0.0 0.0- 0.0--------
2019-04-16 2.5 8.2 -4.7 -8.4 78.5 5.9- 4.1--1024.9 997.0 4.8 4.2 0.6- 0.0--------
2019-04-15 4.5 10.1 -1.0 -6.0 49.5 4.0- 3.1--1025.4 997.7 0.0 0.0 0.0- 0.0--------
2019-04-14 7.4 12.5 2.2 0.8 44.0 4.4- 4.9--1022.3 994.9 0.0 0.0 0.0- 0.0--------
2019-04-13 6.9 11.0 2.0 0.6 62.3 6.1- 3.5--1021.0 993.7 0.0 0.0 0.0- 0.0--------
2019-04-12 3.5 7.2 1.0 0.8 77.4 6.0- 4.6--1021.2 993.5 0.1 0.1 0.0- 0.0--------
2019-04-11 4.9 9.0 3.8 3.9 70.4 6.1- 5.3--1018.0 990.6 0.4 0.0 0.4- 0.0--------
2019-04-10 7.0 11.2 3.6 3.3 56.1 5.6- 4.0--1014.6 987.4 0.0 0.0 0.0- 0.0--------
2019-04-09 11.1 17.0 4.8 2.8 61.4 7.9- 3.5--1009.3 982.7 0.0 0.0 0.0- 0.0--------
2019-04-08 10.1 18.4 0.6 -1.1 71.4 8.4- 1.8--1009.1 982.4 0.0 0.0 0.0- 0.0--------
2019-04-07 9.4 14.6 4.3 2.5 77.0 8.8- 2.1--1009.1 982.3 0.0 0.0 0.0- 0.0--------
2019-04-06 9.1 15.3 1.7 -0.5 62.0 7.0- 4.9--1011.8 984.9 0.4 0.0 0.4- 0.0--------
2019-04-05 9.3 16.6 3.3 1.0 51.5 6.1- 4.6--1012.0 985.1 0.0 0.0 0.0- 0.0--------
2019-04-04 8.7 15.4 2.9 1.3 40.8 4.6- 5.0--1012.5 985.6 0.0 0.0 0.0- 0.0--------
2019-04-03 6.9 13.3 -0.4 -1.9 33.1 3.1- 7.1--1018.4 991.1 0.0 0.0 0.0- 0.0--------
2019-04-02 4.0 11.0 -4.2 -6.5 44.1 3.3- 5.3--1026.0 998.3 0.0 0.0 0.0- 0.0--------
54.6 ms

 

Źródłem pochodzenia danych jest Instytut Meteorologii i Gospodarki Wodnej – Państwowy Instytut Badawczy. Dane Instytutu Meteorologii i Gospodarki Wodnej – Państwowego Instytutu Badawczego zostały przetworzone.

Dane źródłowe można odnaleźć na stronie https://dane.imgw.pl